Weather History for KRFD - April, 2014

Change the Weather History Date:

Wednesday, April 30, 2014

  Actual Average Record
Temperature  
Mean Temperature 46 °F 55 °F  
Max Temperature 49 °F 67 °F 91 °F (1942)
Min Temperature 42 °F 43 °F 28 °F (1931)
Degree Days  
Heating Degree Days 19 11  
Month to date heating degree days 487 476  
Since 1 July heating degree days 7471 6340  
Cooling Degree Days 0 0  
Month to date cooling degree days 0 8  
Year to date cooling degree days 0 8  
Moisture  
Dew Point 40 °F    
Average Humidity 77    
Maximum Humidity 89    
Minimum Humidity 65    
Precipitation  
Precipitation 0.01 in 0.12 in 2.53 in (1911)
Month to date precipitation 2.87 3.35  
Year to date precipitation 7.64 8.45  
Snow  
Snow 0.00 in 0.00 in 1.50 in (1907)
Month to date snowfall 0.3 0.9  
Since 1 July snowfall 56.9 36.7  
Snow Depth 0.00 in    
Sea Level Pressure  
Sea Level Pressure 29.73 in    
Wind  
Wind Speed 10 mph (SSW)    
Max Wind Speed 16 mph    
Max Gust Speed 22 mph    
Visibility 8 miles    
Events Rain    
T = Trace of Precipitation, MM = Missing Value Source: NWS Daily Summary

Daily Weather History Graph

Daily Weather History Graph

Search for Another Location

Airport or City:

Trip Planner

Search our weather history database for the weather conditions in past years. The results will help you decide how hot, cold, wet, or windy it might be!

Date:

Astronomy

Apr. 30, 2014 Rise Set
Actual Time 5:53 AM CDT 7:54 PM CDT
Civil Twilight 5:22 AM CDT 8:25 PM CDT
Nautical Twilight 4:45 AM CDT 9:02 PM CDT
Astronomical Twilight 4:05 AM CDT 9:43 PM CDT
Moon 6:53 AM CDT (4/30) 9:34 PM CDT (4/30)
Length of Visible Light 15h 02m
Length of Day
14h 01m
New Moon, 2% of the Moon is Illuminated
Apr 30
New Moon
May 6
First Quarter
May 14
Full
May 21
Last Quarter
May 28
New

Hourly Weather History & Observations

Time (CDT) Temp. Windchill Dew Point Humidity Pressure Visibility Wind Dir Wind Speed Gust Speed Precip Events Conditions
12:54 AM 48.9 °F - 44.1 °F 83% 29.67 in 10.0 mi SSW 8.1 mph - N/A   Overcast
1:54 AM 48.9 °F - 44.1 °F 83% 29.66 in 10.0 mi South 9.2 mph - N/A   Overcast
2:17 AM 48.9 °F - 44.1 °F 83% 29.66 in 10.0 mi South 11.5 mph - N/A   Overcast
2:44 AM 48.0 °F - 44.1 °F 86% 29.66 in 10.0 mi South 9.2 mph - N/A   Overcast
2:54 AM 48.0 °F - 44.1 °F 86% 29.66 in 10.0 mi South 8.1 mph - N/A   Overcast
3:25 AM 48.0 °F - 44.1 °F 86% 29.66 in 10.0 mi South 9.2 mph - N/A   Overcast
3:54 AM 48.0 °F - 44.1 °F 86% 29.67 in 10.0 mi South 9.2 mph - N/A   Overcast
4:05 AM 48.0 °F - 45.0 °F 89% 29.66 in 2.0 mi South 9.2 mph - 0.00 in   Light Drizzle
4:12 AM 48.0 °F - 45.0 °F 89% 29.66 in 2.0 mi South 9.2 mph - 0.00 in   Light Drizzle
4:54 AM 48.0 °F - 46.0 °F 93% 29.67 in 4.0 mi South 11.5 mph - 0.00 in   Light Drizzle
5:24 AM 48.0 °F - 46.0 °F 93% 29.67 in 2.0 mi SSW 10.4 mph - 0.01 in Rain Light Rain
5:43 AM 46.9 °F - 45.0 °F 93% 29.68 in 3.0 mi WSW 10.4 mph - 0.01 in Rain Light Rain
5:54 AM 46.0 °F 40.6 °F 44.1 °F 93% 29.70 in 4.0 mi SW 11.5 mph - 0.01 in   Light Drizzle
6:54 AM 45.0 °F 40.1 °F 43.0 °F 93% 29.72 in 6.0 mi SW 9.2 mph - 0.00 in   Overcast
7:54 AM 45.0 °F 38.5 °F 41.0 °F 86% 29.72 in 6.0 mi SSW 13.8 mph - N/A   Overcast
8:27 AM 44.1 °F 38.1 °F 42.1 °F 93% 29.72 in 2.5 mi SW 11.5 mph - 0.00 in   Light Drizzle
8:37 AM 44.1 °F 39.0 °F 41.0 °F 89% 29.72 in 3.0 mi SW 9.2 mph - 0.00 in   Light Drizzle
8:54 AM 44.1 °F 38.6 °F 41.0 °F 89% 29.73 in 4.0 mi WSW 10.4 mph - 0.00 in   Light Drizzle
9:54 AM 42.8 °F 37.5 °F 39.2 °F 87% 29.73 in 10.0 mi WSW 9.2 mph - N/A   Overcast
10:02 AM 43.0 °F 36.8 °F 39.0 °F 86% 29.73 in 10.0 mi SW 11.5 mph - N/A   Overcast
10:54 AM 42.1 °F 36.1 °F 37.0 °F 82% 29.77 in 10.0 mi WSW 10.4 mph - N/A   Overcast
11:45 AM 44.1 °F 39.0 °F 36.0 °F 73% 29.77 in 10.0 mi SW 9.2 mph - N/A   Overcast
11:54 AM 44.1 °F 38.1 °F 36.0 °F 73% 29.78 in 10.0 mi SW 11.5 mph - N/A   Overcast
12:54 PM 45.0 °F 38.5 °F 35.1 °F 68% 29.78 in 10.0 mi SSW 13.8 mph - N/A   Overcast
1:54 PM 44.1 °F 38.1 °F 35.1 °F 71% 29.79 in 10.0 mi SSW 11.5 mph - N/A   Overcast
2:54 PM 44.1 °F 37.4 °F 35.1 °F 71% 29.80 in 10.0 mi SSW 13.8 mph - N/A   Overcast
3:54 PM 44.6 °F 38.4 °F 33.8 °F 66% 29.79 in 10.0 mi SW 12.7 mph - N/A   Overcast
4:19 PM 44.1 °F 38.6 °F 35.1 °F 71% 29.79 in 10.0 mi SSW 10.4 mph - N/A   Overcast
4:41 PM 44.1 °F 39.5 °F 34.0 °F 68% 29.79 in 10.0 mi SW 8.1 mph - N/A   Overcast
4:54 PM 44.1 °F 39.0 °F 34.0 °F 68% 29.80 in 10.0 mi SSW 9.2 mph - N/A   Overcast
5:54 PM 45.0 °F 40.6 °F 35.1 °F 68% 29.79 in 10.0 mi SSW 8.1 mph - N/A   Overcast
6:49 PM 44.6 °F 40.7 °F 35.6 °F 71% 29.78 in 10.0 mi SSW 6.9 mph - N/A   Overcast
6:54 PM 45.0 °F 41.2 °F 36.0 °F 71% 29.79 in 10.0 mi SSW 6.9 mph - N/A   Overcast
7:54 PM 45.0 °F 40.6 °F 36.0 °F 71% 29.79 in 10.0 mi SSW 8.1 mph - N/A   Mostly Cloudy
8:54 PM 44.1 °F 39.0 °F 35.1 °F 71% 29.79 in 10.0 mi SW 9.2 mph - N/A   Mostly Cloudy
9:54 PM 43.0 °F 39.5 °F 37.0 °F 80% 29.79 in 10.0 mi SSW 5.8 mph - N/A   Overcast
10:54 PM 43.0 °F 38.8 °F 37.0 °F 80% 29.78 in 10.0 mi SSW 6.9 mph - N/A   Overcast
11:43 PM 43.0 °F 37.7 °F 37.0 °F 80% 29.75 in 10.0 mi SSW 9.2 mph - 0.00 in Rain Light Rain
11:54 PM 43.0 °F 37.2 °F 37.0 °F 80% 29.76 in 10.0 mi SW 10.4 mph - 0.00 in Rain Light Rain